Location: Edoum�
(0.9447°N, 10.6482°E)
Time: 14:15:30
(UTC+00:00)

Centaur D-1A AC-31 - Pass Details

Date: 07 June 2020
Orbit: 630 x 36311 km, 27.3° (Epoch: 07 July)

Event Time Altitude Azimuth Distance (km) Brightness Sun altitude
Rises 04:40:21 0° 306° (NW) 7,668 6.3 -7.9°
Reaches altitude 10° 04:49:03 10° 324° (NW) 4,003 5.1 -5.9°
Maximum altitude 04:54:03 17° 3° (N) 2,253 4.3 -4.8°
Drops below altitude 10° 04:56:58 10° 47° (NE) 2,181 5.3 -4.1°
Sets 04:59:29 0° 73° (ENE) 2,900 7.2 -3.5°
